TimeCST,TemperatureF,Dew PointF,Humidity,Sea Level PressureIn,VisibilityMPH,Wind Direction,Wind SpeedMPH,Gust SpeedMPH,PrecipitationIn,Events,Conditions,WindDirDegrees,DateUTC
12:57 AM,55.0,30.0,38,30.21,10.0,North,15.0,24.2,0.00,,Overcast,10,2012-11-23 06:57:00
3:57 AM,48.0,30.9,52,30.30,10.0,North,8.1,-,N/A,,Scattered Clouds,360,2012-11-23 09:57:00
4:57 AM,45.0,30.9,58,30.33,10.0,North,6.9,-,N/A,,Clear,350,2012-11-23 10:57:00
5:57 AM,43.0,32.0,65,30.34,10.0,NNW,3.5,-,N/A,,Clear,330,2012-11-23 11:57:00
6:57 AM,41.0,30.9,67,30.38,10.0,WNW,4.6,-,N/A,,Clear,300,2012-11-23 12:57:00
7:57 AM,42.1,33.1,70,30.39,10.0,WNW,6.9,-,N/A,,Clear,300,2012-11-23 13:57:00
8:57 AM,44.1,32.0,63,30.40,10.0,NW,15.0,21.9,N/A,,Clear,320,2012-11-23 14:57:00
9:57 AM,44.1,23.0,43,30.43,10.0,NW,16.1,25.3,N/A,,Clear,320,2012-11-23 15:57:00
10:57 AM,43.0,21.0,42,30.43,10.0,NW,18.4,27.6,N/A,,Clear,310,2012-11-23 16:57:00
11:57 AM,43.0,19.9,40,30.43,10.0,NW,15.0,26.5,N/A,,Clear,310,2012-11-23 17:57:00
12:57 PM,43.0,19.0,38,30.42,10.0,NNW,13.8,-,N/A,,Clear,340,2012-11-23 18:57:00
1:57 PM,43.0,19.9,40,30.41,10.0,NW,15.0,-,N/A,,Clear,320,2012-11-23 19:57:00
2:57 PM,43.0,21.0,42,30.42,10.0,NW,12.7,18.4,N/A,,Clear,320,2012-11-23 20:57:00
3:57 PM,42.1,19.9,41,30.42,10.0,NW,13.8,19.6,N/A,,Clear,320,2012-11-23 21:57:00
4:57 PM,39.0,19.9,46,30.43,10.0,NW,10.4,-,N/A,,Clear,320,2012-11-23 22:57:00
5:57 PM,36.0,19.9,52,30.44,10.0,NW,8.1,-,N/A,,Clear,310,2012-11-23 23:57:00
6:57 PM,35.1,19.9,54,30.45,10.0,WNW,5.8,-,N/A,,Clear,300,2012-11-24 00:57:00
7:57 PM,33.1,19.9,59,30.45,10.0,NW,4.6,-,N/A,,Clear,310,2012-11-24 01:57:00
8:57 PM,30.9,21.0,67,30.45,10.0,WNW,3.5,-,N/A,,Clear,300,2012-11-24 02:57:00
9:57 PM,30.9,21.0,67,30.45,10.0,NNW,5.8,-,N/A,,Clear,330,2012-11-24 03:57:00
10:57 PM,30.9,19.0,61,30.45,10.0,NNW,3.5,-,N/A,,Clear,340,2012-11-24 04:57:00
11:57 PM,30.0,19.0,64,30.44,10.0,NW,4.6,-,N/A,,Clear,320,2012-11-24 05:57:00